TimeCST,TemperatureF,Dew PointF,Humidity,Sea Level PressureIn,VisibilityMPH,Wind Direction,Wind SpeedMPH,Gust SpeedMPH,PrecipitationIn,Events,Conditions,WindDirDegrees,DateUTC
2:05 PM,48.2,32.0,54,30.13,10.0,SSW,15.0,-,N/A,,Clear,200,2012-11-14 20:05:00
2:20 PM,48.2,32.0,54,30.13,10.0,SSW,13.8,19.6,N/A,,Clear,200,2012-11-14 20:20:00
2:40 PM,48.2,32.0,54,30.12,10.0,SSW,11.5,-,N/A,,Clear,200,2012-11-14 20:40:00
3:00 PM,48.2,32.0,54,30.12,10.0,South,15.0,-,N/A,,Clear,180,2012-11-14 21:00:00
3:20 PM,48.2,32.0,54,30.11,10.0,South,10.4,-,N/A,,Clear,180,2012-11-14 21:20:00
3:40 PM,48.2,32.0,54,30.11,10.0,SSE,11.5,-,N/A,,Clear,160,2012-11-14 21:40:00
4:00 PM,46.4,32.0,57,30.11,10.0,SSE,10.4,-,N/A,,Clear,160,2012-11-14 22:00:00
4:20 PM,44.6,32.0,61,30.11,10.0,SSE,10.4,-,N/A,,Clear,150,2012-11-14 22:20:00
4:40 PM,42.8,30.2,61,30.10,10.0,SSE,10.4,-,N/A,,Clear,160,2012-11-14 22:40:00
5:00 PM,41.0,30.2,65,30.09,10.0,SSE,9.2,-,N/A,,Clear,150,2012-11-14 23:00:00
5:20 PM,39.2,30.2,70,30.09,10.0,SSE,10.4,-,N/A,,Clear,150,2012-11-14 23:20:00
5:40 PM,39.2,30.2,70,30.10,10.0,SSE,8.1,-,N/A,,Clear,150,2012-11-14 23:40:00
6:00 PM,37.4,30.2,75,30.10,10.0,SSE,9.2,-,N/A,,Clear,150,2012-11-15 00:00:00
6:20 PM,37.4,30.2,75,30.10,10.0,SSE,10.4,-,N/A,,Clear,150,2012-11-15 00:20:00
6:40 PM,37.4,28.4,70,30.10,10.0,SSE,10.4,-,N/A,,Clear,160,2012-11-15 00:40:00
7:00 PM,37.4,30.2,75,30.10,10.0,SSE,11.5,-,N/A,,Clear,160,2012-11-15 01:00:00
7:20 PM,37.4,30.2,75,30.09,10.0,SSE,11.5,-,N/A,,Clear,160,2012-11-15 01:20:00
7:40 PM,37.4,30.2,75,30.09,10.0,SSE,10.4,-,N/A,,Clear,160,2012-11-15 01:40:00
8:20 PM,37.4,30.2,75,30.09,10.0,SSE,10.4,-,N/A,,Clear,160,2012-11-15 02:20:00
8:40 PM,35.6,32.0,87,30.08,10.0,SSE,10.4,-,N/A,,Clear,160,2012-11-15 02:40:00
9:00 PM,35.6,32.0,87,30.08,10.0,South,10.4,-,N/A,,Clear,170,2012-11-15 03:00:00
9:20 PM,35.6,32.0,87,30.08,10.0,South,11.5,-,N/A,,Clear,170,2012-11-15 03:20:00
9:40 PM,35.6,32.0,87,30.08,10.0,South,11.5,-,N/A,,Clear,170,2012-11-15 03:40:00
10:00 PM,35.6,32.0,87,30.08,10.0,South,11.5,-,N/A,,Clear,180,2012-11-15 04:00:00
10:20 PM,35.6,32.0,87,30.08,10.0,South,11.5,-,N/A,,Clear,190,2012-11-15 04:20:00
10:40 PM,35.6,32.0,87,30.08,10.0,SSW,10.4,-,N/A,,Clear,210,2012-11-15 04:40:00
11:35 PM,35.6,32.0,87,30.08,10.0,WSW,10.4,-,N/A,,Clear,240,2012-11-15 05:35:00
11:40 PM,35.6,32.0,87,30.08,10.0,WSW,10.4,-,N/A,,Clear,240,2012-11-15 05:40:00